Minden, LA

11:31 AM CST on February 09, 2016 (GMT -0600)
Minden

Weather History for KMNE - October, 2013

Change the Weather History Date:

Thursday, October 31, 2013

  Actual Average (KBAD) Record (KBAD)
Temperature  
Mean Temperature 64 °F -  
Max Temperature 74 °F 69 °F 83 °F (2010)
Min Temperature 55 °F 49 °F 39 °F (2011)
Growing Degree Days 14 (Base 50)    
Moisture  
Dew Point 64 °F    
Average Humidity 84    
Maximum Humidity 93    
Minimum Humidity 60    
Precipitation  
Precipitation 1.94 in - - ()
Sea Level Pressure  
Sea Level Pressure 29.78 in    
Wind  
Wind Speed 8 mph (South)    
Max Wind Speed 15 mph    
Max Gust Speed 26 mph    
Visibility 9 miles    
Events Rain , Thunderstorm    
Averages and records for this station are not official NWS values.
T = Trace of Precipitation, MM = Missing Value Source: NWS Daily Summary

Daily Weather History Graph

Daily Weather History Graph

Search for Another Location

Airport or City:

Trip Planner

Search our weather history database for the weather conditions in past years. The results will help you decide how hot, cold, wet, or windy it might be!

Date:

Astronomy

Oct. 31, 2013 Rise Set
Actual Time 7:30 AM CDT 6:23 PM CDT
Civil Twilight 7:04 AM CDT 6:48 PM CDT
Nautical Twilight 6:35 AM CDT 7:17 PM CDT
Astronomical Twilight 6:06 AM CDT 7:46 PM CDT
Moon 4:29 AM CDT (10/31) 4:33 PM CDT (10/31)
Length of Visible Light 11h 43m
Length of Day
10h 52m
Waning Crescent, 10% of the Moon is Illuminated
Oct 31
Waning Crescent
Nov 3
New
Nov 9
First Quarter
Nov 17
Full
Nov 25
Last Quarter

Hourly Weather History & Observations

Time (CDT) Temp. Dew Point Humidity Pressure Visibility Wind Dir Wind Speed Gust Speed Precip Events Conditions
12:15 AM 69.8 °F 67.1 °F 91% 29.87 in 10.0 mi SE 12.7 mph 18.4 mph N/A   Overcast
12:35 AM 70.2 °F 67.1 °F 90% 29.86 in 10.0 mi SE 12.7 mph 18.4 mph N/A Thunderstorm Overcast
12:55 AM 70.2 °F 67.1 °F 90% 29.85 in 10.0 mi SE 10.4 mph 18.4 mph N/A Rain Light Rain
1:15 AM 70.3 °F 67.3 °F 90% 29.84 in 10.0 mi SSE 13.8 mph 26.5 mph N/A   Overcast
1:35 AM 70.7 °F 67.3 °F 89% 29.84 in 10.0 mi SSE 10.4 mph 19.6 mph 0.01 in Rain , Thunderstorm Light Thunderstorms and Rain
1:55 AM 70.7 °F 67.6 °F 90% 29.83 in 10.0 mi SSE 8.1 mph 17.3 mph 0.01 in Rain , Thunderstorm Light Thunderstorms and Rain
2:15 AM 70.7 °F 67.8 °F 91% 29.82 in 10.0 mi SE 8.1 mph - 0.02 in Rain Rain
2:35 AM 70.7 °F 68.0 °F 91% 29.81 in 10.0 mi SSE 8.1 mph - 0.04 in   Overcast
2:55 AM 70.9 °F 68.0 °F 91% 29.80 in 10.0 mi SSE 9.2 mph 17.3 mph 0.04 in Rain Rain
3:15 AM 71.1 °F 68.2 °F 91% 29.78 in 10.0 mi SSE 11.5 mph 16.1 mph 0.01 in Rain Light Rain
3:35 AM 71.1 °F 68.2 °F 91% 29.77 in 7.0 mi SSE 10.4 mph 21.9 mph 0.03 in Rain , Thunderstorm Rain
3:55 AM 71.1 °F 68.2 °F 91% 29.75 in 10.0 mi SSE 15.0 mph 23.0 mph 0.11 in Rain Light Rain
4:15 AM 71.1 °F 68.0 °F 90% 29.81 in 7.0 mi WNW 10.4 mph 24.2 mph N/A   Drizzle
4:35 AM 69.4 °F 66.7 °F 91% 29.80 in 2.0 mi SW 9.2 mph 16.1 mph 0.44 in Rain , Thunderstorm Heavy Thunderstorms and Rain
4:55 AM 69.4 °F 67.1 °F 92% 29.78 in 2.0 mi SW 5.8 mph - 0.96 in Rain , Thunderstorm Heavy Thunderstorms and Rain
5:15 AM 69.4 °F 67.1 °F 92% 29.76 in 10.0 mi SE 3.5 mph - 0.04 in Rain Rain
5:35 AM 69.8 °F 67.3 °F 92% 29.76 in 3.0 mi SSW 3.5 mph - 0.14 in Rain Heavy Rain
5:55 AM 69.8 °F 67.5 °F 92% 29.77 in 10.0 mi South 3.5 mph - 0.18 in Rain Rain
6:15 AM 69.8 °F 67.5 °F 92% 29.76 in 4.0 mi SE 4.6 mph - 0.11 in Rain Heavy Rain
6:35 AM 70.0 °F 68.0 °F 93% 29.75 in 5.0 mi SSE 4.6 mph - 0.19 in Rain Rain
6:55 AM 70.0 °F 68.0 °F 93% 29.76 in 3.0 mi SSE 5.8 mph - 0.47 in Rain Heavy Rain
7:15 AM 70.0 °F 68.0 °F 93% 29.73 in 7.0 mi SE 5.8 mph - 0.04 in Rain Light Rain
7:35 AM 70.2 °F 68.0 °F 93% 29.74 in 7.0 mi SE 8.1 mph - 0.10 in Rain Rain
7:55 AM 70.2 °F 68.0 °F 93% 29.74 in 10.0 mi SE 8.1 mph - 0.14 in Rain Light Rain
8:15 AM 70.3 °F 68.2 °F 93% 29.73 in 10.0 mi SE 4.6 mph - 0.01 in Rain Light Rain
8:35 AM 70.3 °F 68.2 °F 93% 29.72 in 10.0 mi SE 6.9 mph - 0.01 in Rain Light Rain
8:55 AM 70.7 °F 68.4 °F 92% 29.72 in 10.0 mi ESE 9.2 mph - 0.01 in Rain Light Rain
9:15 AM 70.7 °F 68.2 °F 92% 29.75 in 10.0 mi SSE 4.6 mph - N/A   Overcast
9:35 AM 70.7 °F 68.4 °F 92% 29.76 in 10.0 mi SSE 6.9 mph - N/A Rain Light Rain
9:55 AM 71.1 °F 68.7 °F 92% 29.76 in 10.0 mi Calm Calm - 0.01 in Rain Light Rain
10:15 AM 71.6 °F 68.9 °F 91% 29.77 in 10.0 mi WSW 4.6 mph - N/A Rain Light Rain
10:35 AM 71.6 °F 69.1 °F 92% 29.77 in 10.0 mi SW 3.5 mph - N/A Rain Light Rain
10:55 AM 71.8 °F 68.9 °F 91% 29.75 in 10.0 mi SSE 4.6 mph - N/A   Mostly Cloudy
11:15 AM 71.8 °F 68.9 °F 91% 29.76 in 10.0 mi South 4.6 mph - N/A Rain Light Rain
11:35 AM 72.1 °F 69.4 °F 91% 29.76 in 10.0 mi SSE 4.6 mph - 0.01 in Rain Light Rain
11:55 AM 71.8 °F 68.9 °F 91% 29.76 in 10.0 mi South 5.8 mph - 0.01 in   Overcast
12:15 PM 72.0 °F 69.1 °F 91% 29.76 in 10.0 mi SSW 5.8 mph - N/A   Overcast
12:35 PM 71.8 °F 68.9 °F 91% 29.76 in 10.0 mi SSW 6.9 mph - N/A   Overcast
12:55 PM 72.0 °F 68.7 °F 89% 29.75 in 10.0 mi SSW 11.5 mph 16.1 mph N/A Rain Light Rain
1:15 PM 72.1 °F 68.0 °F 87% 29.74 in 10.0 mi SSW 5.8 mph - N/A   Mostly Cloudy
1:35 PM 72.0 °F 68.0 °F 87% 29.73 in 10.0 mi SW 5.8 mph - N/A   Overcast
1:55 PM 72.0 °F 67.8 °F 87% 29.73 in 10.0 mi SW 9.2 mph - N/A   Overcast
2:15 PM 72.9 °F 67.6 °F 84% 29.73 in 10.0 mi SSW 9.2 mph 17.3 mph N/A   Overcast
2:35 PM 73.2 °F 67.3 °F 82% 29.71 in 10.0 mi SSW 9.2 mph 18.4 mph N/A   Overcast
2:55 PM 73.0 °F 66.7 °F 81% 29.72 in 10.0 mi SSW 10.4 mph 18.4 mph N/A   Mostly Cloudy
3:15 PM 73.4 °F 66.4 °F 79% 29.72 in 10.0 mi SSW 11.5 mph 19.6 mph N/A   Mostly Cloudy
3:35 PM 74.1 °F 66.4 °F 77% 29.71 in 10.0 mi SW 11.5 mph 16.1 mph N/A   Mostly Cloudy
3:55 PM 73.6 °F 66.2 °F 78% 29.71 in 10.0 mi SSW 11.5 mph - N/A   Scattered Clouds
4:15 PM 73.6 °F 66.2 °F 78% 29.71 in 10.0 mi SSW 6.9 mph - N/A   Clear
4:35 PM 74.5 °F 66.2 °F 75% 29.71 in 7.0 mi SSW 6.9 mph - N/A   Clear
4:55 PM 74.5 °F 66.4 °F 76% 29.72 in 10.0 mi South 5.8 mph - N/A   Mostly Cloudy
5:15 PM 74.3 °F 66.2 °F 76% 29.73 in 10.0 mi SSW 6.9 mph - N/A   Scattered Clouds
5:35 PM 73.2 °F 65.5 °F 77% 29.73 in 10.0 mi SSW 8.1 mph - N/A   Scattered Clouds
5:55 PM 72.3 °F 65.1 °F 78% 29.73 in 10.0 mi SSW 6.9 mph - N/A   Clear
6:15 PM 70.7 °F 64.6 °F 81% 29.74 in 10.0 mi SSW 5.8 mph - N/A   Clear
6:35 PM 69.8 °F 63.3 °F 80% 29.76 in 10.0 mi WSW 5.8 mph - N/A   Clear
6:55 PM 68.9 °F 58.6 °F 70% 29.78 in 10.0 mi West 6.9 mph - N/A   Clear
7:15 PM 66.9 °F 52.9 °F 61% 29.79 in 10.0 mi WSW 3.5 mph - N/A   Clear
7:35 PM 66.0 °F 51.6 °F 60% 29.80 in 10.0 mi Calm Calm - N/A   Clear
7:55 PM 63.7 °F 53.4 °F 69% 29.81 in 10.0 mi Calm Calm - N/A   Clear
8:15 PM 63.5 °F 52.3 °F 67% 29.81 in 10.0 mi West 4.6 mph - N/A   Clear
8:35 PM 63.0 °F 51.1 °F 65% 29.82 in 10.0 mi Calm Calm - N/A   Clear
8:55 PM 61.7 °F 50.9 °F 68% 29.83 in 10.0 mi Calm Calm - N/A   Clear
9:15 PM 61.7 °F 50.0 °F 65% 29.83 in 10.0 mi Calm Calm - N/A   Clear
9:35 PM 60.6 °F 50.5 °F 69% 29.83 in 10.0 mi Calm Calm - N/A   Clear
9:55 PM 57.6 °F 51.3 °F 79% 29.84 in 10.0 mi Calm Calm - N/A   Clear
10:15 PM 58.8 °F 50.9 °F 75% 29.85 in 10.0 mi NW 3.5 mph - N/A   Clear
10:35 PM 58.5 °F 50.5 °F 75% 29.86 in 10.0 mi Calm Calm - N/A   Clear
10:55 PM 58.1 °F 50.5 °F 76% 29.87 in 10.0 mi WNW 3.5 mph - N/A   Clear
11:15 PM 56.3 °F 50.9 °F 82% 29.87 in 10.0 mi Calm Calm - N/A   Clear
11:35 PM 55.6 °F 50.9 °F 84% 29.87 in 10.0 mi WSW 4.6 mph - N/A   Clear
11:55 PM 56.3 °F 50.9 °F 82% 29.88 in 10.0 mi West 3.5 mph - N/A   Clear